Main page
METAR-TAF:

METAR-TAF

Airports :

Bowman Field

Louisville, Kentucky, United States

latitude: 38-13-40N, longitude: 085-39-49W, elevation: 544 ft

Current weather observation

The report was made 1 hour and 1 minutes ago, at 02:53 UTC
Wind 6 mph from the South/Southwest
Temperature 77°F
Humidity 47%
Pressure 29.99 in. Hg
Visibility: 10 miles
Clear sky

METAR: KLOU 030253Z AUTO 21005KT 10SM CLR 25/13 A2999 RMK AO2 SLP151 T02500133 53003 $

Time: 23:54 (03:54 UTC)


TAF: missing

Weather observations and forecasts of more than 4000 airports (METAR and TAF reports).

The available stations are represented by yellow and red dots on the map.

Hover mouse over dot to see the name of the station.

Then click to see weather observations and forecasts.

To change the map : click on the green buttons with a black cross to zoom in, on the green button with a dash to zoom out, or on the green arrows for adjacent maps.


METAR-TAF: